Stations météo

réclame
Mon MeteoGroup
Cluanie Inn No 3, Grande-Bretagne (99117): Température de l'air & dewpoint: 17.01.2018 06:00:00 - 23.01.2018 06:00:00 (GMT)Cluanie Inn No 3, Grande-Bretagne (99117): Quantités de précipitations: 17.01.2018 06:00:00 - 23.01.2018 06:00:00 (GMT)
Date & Time tt [°C] td [°C] rr [mm]
23.01.2018 06:00:00 - - -
23.01.2018 05:00:00 5,9 5,0 1,0
23.01.2018 04:00:00 5,6 4,5 1,2
23.01.2018 03:00:00 6,4 4,5 4,8
23.01.2018 02:00:00 7,3 4,8 0,6
23.01.2018 01:00:00 7,4 4,3 0,2
23.01.2018 00:00:00 7,2 3,9 0,2
22.01.2018 23:00:00 7,5 5,0 0,4
22.01.2018 22:00:00 5,2 3,9 0,4
22.01.2018 21:00:00 5,4 3,3 0,2
22.01.2018 20:00:00 6,4 2,1 0,0
22.01.2018 19:00:00 6,1 1,8 0,0
22.01.2018 18:00:00 6,0 1,6 0,0
22.01.2018 17:00:00 5,7 3,0 0,2
22.01.2018 16:00:00 6,4 1,7 0,2
22.01.2018 15:00:00 5,6 2,7 0,2
22.01.2018 14:00:00 6,3 2,2 0,2
22.01.2018 13:00:00 5,8 2,5 0,2
22.01.2018 12:00:00 5,7 2,8 0,6
22.01.2018 11:00:00 5,5 1,7 0,0
22.01.2018 10:00:00 5,7 2,4 0,6
22.01.2018 09:00:00 4,9 3,0 0,6
22.01.2018 08:00:00 5,0 2,9 0,8
22.01.2018 07:00:00 4,6 2,7 1,8
22.01.2018 06:00:00 5,1 2,6 1,0
22.01.2018 05:00:00 4,8 2,5 1,0
22.01.2018 04:00:00 4,6 2,5 0,6
22.01.2018 03:00:00 5,0 2,5 0,6
22.01.2018 02:00:00 4,3 1,5 1,2
22.01.2018 01:00:00 5,7 2,0 3,0
22.01.2018 00:00:00 5,1 2,0 3,2
21.01.2018 23:00:00 4,7 2,4 4,4
21.01.2018 22:00:00 5,2 3,0 8,0
21.01.2018 21:00:00 5,6 2,7 1,2
21.01.2018 20:00:00 5,6 3,3 0,0
21.01.2018 19:00:00 2,5 1,6 0,0
21.01.2018 18:00:00 4,1 1,9 0,0
21.01.2018 17:00:00 1,3 0,5 0,0
21.01.2018 16:00:00 0,6 0,1 0,0
21.01.2018 15:00:00 0,5 -0,1 0,0
21.01.2018 14:00:00 0,1 -0,1 0,0
21.01.2018 13:00:00 -0,3 -1,3 0,0
21.01.2018 12:00:00 0,8 -3,4 0,0
21.01.2018 11:00:00 0,4 -4,1 0,0
21.01.2018 10:00:00 -0,1 -4,9 0,0
21.01.2018 09:00:00 -1,5 -4,1 0,0
21.01.2018 08:00:00 -3,9 -4,4 0,0
21.01.2018 07:00:00 -5,8 -6,4 0,0
21.01.2018 06:00:00 -6,2 -6,8 0,0
21.01.2018 05:00:00 -5,5 -6,1 0,0
21.01.2018 04:00:00 -5,8 -6,3 0,0
21.01.2018 03:00:00 -7,3 -8,0 0,0
21.01.2018 02:00:00 -9,3 -10,2 0,0
21.01.2018 01:00:00 -8,6 -9,5 0,0
21.01.2018 00:00:00 -7,3 -7,9 0,0
20.01.2018 23:00:00 -6,6 -6,9 0,0
20.01.2018 22:00:00 -6,9 -7,4 0,0
20.01.2018 21:00:00 -6,4 -7,3 0,0
20.01.2018 20:00:00 -5,7 -6,8 0,0
20.01.2018 19:00:00 -3,6 -4,1 0,0
20.01.2018 18:00:00 -4,8 -5,7 0,0
20.01.2018 17:00:00 -4,3 -5,3 0,0
20.01.2018 16:00:00 -1,9 -3,0 0,0
20.01.2018 15:00:00 -4,5 -5,7 0,0
20.01.2018 14:00:00 -5,0 -6,7 0,0
20.01.2018 13:00:00 -4,8 -6,9 0,0
20.01.2018 12:00:00 -3,7 -4,9 0,0
20.01.2018 11:00:00 -4,4 -5,3 0,0
20.01.2018 10:00:00 -6,5 -7,5 0,0
20.01.2018 09:00:00 -6,6 -7,2 0,0
20.01.2018 08:00:00 -7,8 -9,1 0,0
20.01.2018 07:00:00 -6,2 -7,5 0,0
20.01.2018 06:00:00 -4,5 -6,2 0,0
20.01.2018 05:00:00 -2,5 -4,5 0,0
20.01.2018 04:00:00 -3,5 -6,2 0,0
20.01.2018 03:00:00 -1,1 -4,0 0,0
20.01.2018 02:00:00 -0,4 -2,1 0,0
20.01.2018 01:00:00 -0,2 -2,3 0,0
20.01.2018 00:00:00 -0,5 -1,1 -
19.01.2018 23:00:00 -0,3 -0,9 0,0
19.01.2018 22:00:00 0,0 -0,9 0,0
19.01.2018 21:00:00 -1,2 -2,1 0,0
19.01.2018 20:00:00 0,2 -0,8 0,0
19.01.2018 19:00:00 1,6 -1,6 0,2
19.01.2018 18:00:00 -0,8 -3,4 0,0
19.01.2018 17:00:00 -1,1 -2,8 0,0
19.01.2018 16:00:00 -0,2 -1,7 0,0
19.01.2018 15:00:00 0,0 -0,8 0,0
19.01.2018 14:00:00 0,4 -0,8 0,2
19.01.2018 13:00:00 0,2 -0,7 0,0
19.01.2018 12:00:00 -0,4 -0,8 0,0
19.01.2018 11:00:00 -0,2 -0,5 0,0
19.01.2018 10:00:00 -0,7 -1,2 0,0
19.01.2018 09:00:00 -0,3 -1,1 0,0
19.01.2018 08:00:00 -0,6 -0,9 0,0
19.01.2018 07:00:00 -0,3 -0,9 0,0
19.01.2018 06:00:00 -0,1 -0,6 0,0
19.01.2018 05:00:00 -0,5 -0,8 0,0
19.01.2018 04:00:00 -1,3 -1,7 0,0
19.01.2018 03:00:00 -0,1 -0,5 0,0
19.01.2018 02:00:00 0,0 -0,6 0,0
19.01.2018 01:00:00 1,3 -1,8 0,0
19.01.2018 00:00:00 0,7 -1,0 0,0
18.01.2018 23:00:00 1,2 -1,6 0,0
18.01.2018 22:00:00 1,2 -1,9 0,0
18.01.2018 21:00:00 1,8 -1,5 0,0
18.01.2018 20:00:00 1,7 -1,8 0,0
18.01.2018 19:00:00 1,7 -1,0 0,0
18.01.2018 18:00:00 -0,5 -2,7 0,0
18.01.2018 17:00:00 1,8 -1,4 0,2
18.01.2018 16:00:00 1,5 -1,7 0,0
18.01.2018 15:00:00 0,6 -1,1 0,2
18.01.2018 14:00:00 -0,1 -0,5 0,4
18.01.2018 13:00:00 0,3 0,0 0,4
18.01.2018 12:00:00 0,8 0,1 0,4
18.01.2018 11:00:00 0,5 0,0 0,0
18.01.2018 10:00:00 0,4 -0,4 0,0
18.01.2018 09:00:00 0,4 -0,4 0,0
18.01.2018 08:00:00 0,8 -0,3 0,0
18.01.2018 07:00:00 1,4 -0,9 0,0
18.01.2018 06:00:00 1,3 -0,4 0,0
18.01.2018 05:00:00 1,7 -1,1 0,0
18.01.2018 04:00:00 2,0 -0,8 0,0
18.01.2018 03:00:00 -0,2 -0,9 0,0
18.01.2018 02:00:00 -2,4 -3,2 0,0
18.01.2018 01:00:00 -1,0 -2,1 0,0
18.01.2018 00:00:00 -1,3 -2,7 0,0
17.01.2018 23:00:00 -1,0 -2,7 0,0
17.01.2018 22:00:00 -0,6 -2,7 0,0
17.01.2018 21:00:00 2,1 -2,4 0,8
17.01.2018 20:00:00 1,1 -2,1 0,8
17.01.2018 19:00:00 0,7 -2,1 0,8
17.01.2018 18:00:00 1,9 -2,0 0,4
17.01.2018 17:00:00 2,3 -2,2 0,2
17.01.2018 16:00:00 1,3 -0,7 0,0
17.01.2018 15:00:00 3,0 -2,3 0,0
17.01.2018 14:00:00 2,3 -0,7 0,0
17.01.2018 13:00:00 1,6 -0,4 0,0
17.01.2018 12:00:00 1,2 0,4 0,0
17.01.2018 11:00:00 0,4 -0,1 0,0
17.01.2018 10:00:00 1,0 -0,8 0,0
17.01.2018 09:00:00 0,6 -0,3 0,0
17.01.2018 08:00:00 1,3 -0,2 0,0
17.01.2018 07:00:00 0,5 -1,1 0,0
17.01.2018 06:00:00 1,2 -1,8 0,0

tt = Température de l'air
td = dewpoint
rr = Quantités de précipitations

stations d'obs. à proximité